TimeEDT,TemperatureF,Dew PointF,Humidity,Sea Level PressureIn,VisibilityMPH,Wind Direction,Wind SpeedMPH,Gust SpeedMPH,PrecipitationIn,Events,Conditions,WindDirDegrees,DateUTC
12:15 AM,71.6,69.8,94,30.08,10.0,NE,3.5,-,N/A,,Clear,50,2013-09-12 04:15:00
12:35 AM,71.6,69.8,94,30.08,7.0,Calm,Calm,-,N/A,,Clear,0,2013-09-12 04:35:00
12:53 AM,73.9,70.0,87,30.06,-9999.0,Calm,Calm,-,N/A,,Unknown,0,2013-09-12 04:53:00
12:55 AM,71.6,69.8,94,30.07,10.0,Calm,Calm,-,N/A,,Clear,0,2013-09-12 04:55:00
1:15 AM,71.6,69.8,94,30.06,10.0,Calm,Calm,-,N/A,,Clear,0,2013-09-12 05:15:00
1:35 AM,71.6,69.8,94,30.05,10.0,Calm,Calm,-,N/A,,Clear,0,2013-09-12 05:35:00
1:53 AM,73.0,70.0,90,30.04,-9999.0,NE,3.5,-,N/A,,Unknown,40,2013-09-12 05:53:00
1:55 AM,71.6,69.8,94,30.05,10.0,NE,3.5,-,N/A,,Clear,50,2013-09-12 05:55:00
2:15 AM,71.6,69.8,94,30.05,7.0,Calm,Calm,-,N/A,,Clear,0,2013-09-12 06:15:00
2:35 AM,71.6,69.8,94,30.05,7.0,Calm,Calm,-,N/A,,Clear,0,2013-09-12 06:35:00
2:53 AM,73.0,70.0,90,30.04,-9999.0,Calm,Calm,-,N/A,,Unknown,0,2013-09-12 06:53:00
2:55 AM,71.6,69.8,94,30.05,7.0,Calm,Calm,-,N/A,,Clear,0,2013-09-12 06:55:00
3:15 AM,71.6,69.8,94,30.05,7.0,Calm,Calm,-,N/A,,Clear,0,2013-09-12 07:15:00
3:35 AM,71.6,69.8,94,30.05,7.0,Calm,Calm,-,N/A,,Clear,0,2013-09-12 07:35:00
3:53 AM,73.0,69.1,87,30.03,-9999.0,NE,3.5,-,N/A,,Unknown,40,2013-09-12 07:53:00
3:55 AM,69.8,69.8,100,30.05,7.0,Calm,Calm,-,N/A,,Clear,0,2013-09-12 07:55:00
4:15 AM,69.8,68.0,94,30.05,5.0,Calm,Calm,-,N/A,,Clear,0,2013-09-12 08:15:00
4:35 AM,69.8,68.0,94,30.05,5.0,Calm,Calm,-,N/A,,Clear,0,2013-09-12 08:35:00
4:53 AM,72.0,69.1,91,30.03,-9999.0,Calm,Calm,-,N/A,,Unknown,0,2013-09-12 08:53:00
4:55 AM,69.8,68.0,94,30.04,7.0,Calm,Calm,-,N/A,,Clear,0,2013-09-12 08:55:00
5:15 AM,69.8,68.0,94,30.04,7.0,Calm,Calm,-,N/A,,Clear,0,2013-09-12 09:15:00
5:35 AM,69.8,68.0,94,30.04,5.0,Calm,Calm,-,N/A,,Clear,0,2013-09-12 09:35:00
5:53 AM,72.0,69.1,91,30.02,-9999.0,NNE,3.5,-,N/A,,Unknown,30,2013-09-12 09:53:00
5:55 AM,69.8,68.0,94,30.04,5.0,Calm,Calm,-,N/A,,Clear,0,2013-09-12 09:55:00
6:15 AM,69.8,68.0,94,30.03,5.0,Calm,Calm,-,N/A,,Clear,0,2013-09-12 10:15:00
6:35 AM,69.8,68.0,94,30.04,5.0,Calm,Calm,-,N/A,,Clear,0,2013-09-12 10:35:00
6:53 AM,71.1,68.0,90,30.03,-9999.0,NNE,4.6,-,N/A,,Unknown,20,2013-09-12 10:53:00
6:55 AM,69.8,68.0,94,30.04,5.0,NNE,4.6,-,N/A,,Clear,20,2013-09-12 10:55:00
7:15 AM,69.8,68.0,94,30.04,5.0,NE,3.5,-,N/A,,Clear,40,2013-09-12 11:15:00
7:35 AM,69.8,68.0,94,30.05,4.0,Calm,Calm,-,N/A,,Clear,0,2013-09-12 11:35:00
7:53 AM,71.1,69.1,93,30.04,-9999.0,Calm,Calm,-,N/A,,Unknown,0,2013-09-12 11:53:00
7:55 AM,69.8,68.0,94,30.05,2.5,Calm,Calm,-,N/A,,Scattered Clouds,0,2013-09-12 11:55:00
8:15 AM,69.8,69.8,100,30.05,4.0,NNE,4.6,-,N/A,,Clear,30,2013-09-12 12:15:00
8:35 AM,71.6,69.8,94,30.05,5.0,NNE,5.8,-,N/A,,Clear,20,2013-09-12 12:35:00
8:53 AM,75.0,70.0,84,30.04,-9999.0,NNE,5.8,-,N/A,,Unknown,30,2013-09-12 12:53:00
8:55 AM,71.6,69.8,94,30.05,7.0,NE,4.6,-,N/A,,Clear,40,2013-09-12 12:55:00
9:15 AM,73.4,71.6,94,30.06,10.0,NE,3.5,-,N/A,,Clear,50,2013-09-12 13:15:00
9:35 AM,75.2,71.6,89,30.06,10.0,NE,3.5,-,N/A,,Clear,50,2013-09-12 13:35:00
9:53 AM,79.0,73.0,82,30.04,-9999.0,ENE,4.6,-,0.01,,Unknown,60,2013-09-12 13:53:00
9:55 AM,77.0,71.6,83,30.06,10.0,ENE,4.6,-,N/A,,Clear,60,2013-09-12 13:55:00
10:15 AM,78.8,71.6,78,30.06,10.0,ENE,4.6,-,N/A,,Clear,60,2013-09-12 14:15:00
10:35 AM,78.8,71.6,78,30.06,10.0,ENE,6.9,-,N/A,,Clear,60,2013-09-12 14:35:00
10:53 AM,82.9,72.0,69,30.04,-9999.0,East,4.6,-,N/A,,Unknown,80,2013-09-12 14:53:00
10:55 AM,80.6,71.6,74,30.05,10.0,ENE,4.6,-,N/A,,Clear,70,2013-09-12 14:55:00
11:15 AM,80.6,69.8,70,30.06,10.0,East,5.8,-,N/A,,Scattered Clouds,80,2013-09-12 15:15:00
11:35 AM,80.6,69.8,70,30.05,10.0,ENE,4.6,-,N/A,,Scattered Clouds,70,2013-09-12 15:35:00
11:53 AM,84.9,71.1,63,30.04,-9999.0,NE,6.9,-,N/A,,Unknown,40,2013-09-12 15:53:00
11:55 AM,82.4,69.8,66,30.05,10.0,ENE,5.8,-,N/A,,Clear,60,2013-09-12 15:55:00
12:15 PM,82.4,69.8,66,30.05,10.0,North,6.9,-,N/A,,Scattered Clouds,10,2013-09-12 16:15:00
12:35 PM,82.4,69.8,66,30.04,10.0,NNE,8.1,-,N/A,,Mostly Cloudy,20,2013-09-12 16:35:00
12:53 PM,88.0,70.0,55,30.02,-9999.0,ESE,9.2,-,N/A,,Unknown,110,2013-09-12 16:53:00
12:55 PM,86.0,68.0,55,30.03,10.0,ESE,9.2,-,N/A,,Scattered Clouds,110,2013-09-12 16:55:00
1:15 PM,86.0,68.0,55,30.02,10.0,NE,5.8,-,N/A,,Scattered Clouds,40,2013-09-12 17:15:00
1:35 PM,86.0,68.0,55,30.02,10.0,ENE,4.6,-,N/A,,Clear,70,2013-09-12 17:35:00
1:53 PM,89.1,69.1,52,29.99,-9999.0,Variable,4.6,-,N/A,,Unknown,0,2013-09-12 17:53:00
1:55 PM,87.8,68.0,52,30.01,10.0,Calm,Calm,-,N/A,,Scattered Clouds,0,2013-09-12 17:55:00
2:15 PM,84.2,66.2,55,30.00,10.0,NE,3.5,-,N/A,,Scattered Clouds,40,2013-09-12 18:15:00
2:35 PM,87.8,66.2,49,29.99,10.0,NE,3.5,-,N/A,,Clear,40,2013-09-12 18:35:00
2:53 PM,88.0,68.0,51,29.96,-9999.0,Variable,3.5,-,N/A,,Unknown,0,2013-09-12 18:53:00
2:55 PM,86.0,66.2,51,29.98,10.0,North,3.5,-,N/A,,Scattered Clouds,360,2013-09-12 18:55:00
3:15 PM,87.8,64.4,46,29.97,10.0,SE,4.6,-,N/A,,Clear,130,2013-09-12 19:15:00
3:35 PM,87.8,62.6,43,29.95,10.0,East,3.5,-,N/A,,Clear,100,2013-09-12 19:35:00
3:53 PM,88.0,66.9,49,29.93,-9999.0,NNE,6.9,-,N/A,,Unknown,20,2013-09-12 19:53:00
3:55 PM,86.0,66.2,51,29.95,10.0,NNE,5.8,-,N/A,,Scattered Clouds,30,2013-09-12 19:55:00
4:15 PM,87.8,62.6,43,29.94,10.0,North,3.5,-,N/A,,Clear,360,2013-09-12 20:15:00
4:35 PM,87.8,62.6,43,29.93,10.0,Calm,Calm,-,N/A,,Clear,0,2013-09-12 20:35:00
4:53 PM,91.0,66.9,45,29.91,-9999.0,East,4.6,-,N/A,,Unknown,90,2013-09-12 20:53:00
4:55 PM,89.6,62.6,40,29.92,10.0,East,4.6,-,N/A,,Scattered Clouds,90,2013-09-12 20:55:00
5:15 PM,87.8,60.8,40,29.92,10.0,Calm,Calm,-,N/A,,Clear,0,2013-09-12 21:15:00
5:35 PM,87.8,62.6,43,29.91,10.0,Calm,Calm,-,N/A,,Clear,0,2013-09-12 21:35:00
5:53 PM,91.0,66.0,44,29.90,-9999.0,NNW,4.6,-,N/A,,Unknown,330,2013-09-12 21:53:00
5:55 PM,87.8,62.6,43,29.91,10.0,NNW,3.5,-,N/A,,Clear,340,2013-09-12 21:55:00
6:15 PM,87.8,62.6,43,29.91,10.0,Calm,Calm,-,N/A,,Clear,0,2013-09-12 22:15:00
6:35 PM,87.8,64.4,46,29.91,10.0,North,3.5,-,N/A,,Scattered Clouds,360,2013-09-12 22:35:00
6:53 PM,88.0,66.9,49,29.89,-9999.0,North,4.6,-,N/A,,Unknown,350,2013-09-12 22:53:00
6:55 PM,86.0,64.4,48,29.90,10.0,North,4.6,-,N/A,,Clear,360,2013-09-12 22:55:00
7:15 PM,84.2,68.0,58,29.91,10.0,Calm,Calm,-,N/A,,Clear,0,2013-09-12 23:15:00
7:35 PM,82.4,68.0,62,29.91,10.0,Calm,Calm,-,N/A,,Clear,0,2013-09-12 23:35:00
7:53 PM,81.0,70.0,69,29.89,-9999.0,Calm,Calm,-,N/A,,Unknown,0,2013-09-12 23:53:00
7:55 PM,80.6,68.0,65,29.91,10.0,Calm,Calm,-,N/A,,Clear,0,2013-09-12 23:55:00
8:15 PM,77.0,69.8,78,29.92,10.0,Calm,Calm,-,N/A,,Clear,0,2013-09-13 00:15:00
8:35 PM,77.0,71.6,83,29.93,10.0,SW,4.6,-,N/A,,Clear,220,2013-09-13 00:35:00
8:53 PM,79.0,72.0,79,29.92,-9999.0,Calm,Calm,-,N/A,,Unknown,0,2013-09-13 00:53:00
8:55 PM,77.0,71.6,83,29.94,10.0,Calm,Calm,-,N/A,,Clear,0,2013-09-13 00:55:00
9:15 PM,78.8,71.6,78,29.94,10.0,Calm,Calm,-,N/A,,Clear,0,2013-09-13 01:15:00
9:35 PM,77.0,69.8,78,29.95,10.0,Calm,Calm,-,N/A,,Clear,0,2013-09-13 01:35:00
9:53 PM,77.0,72.0,84,29.93,-9999.0,Calm,Calm,-,N/A,,Unknown,0,2013-09-13 01:53:00
9:55 PM,75.2,71.6,89,29.95,10.0,Calm,Calm,-,N/A,,Clear,0,2013-09-13 01:55:00
10:15 PM,75.2,71.6,89,29.95,10.0,Calm,Calm,-,N/A,,Clear,0,2013-09-13 02:15:00
10:35 PM,73.4,69.8,88,29.95,10.0,Calm,Calm,-,N/A,,Clear,0,2013-09-13 02:35:00
10:53 PM,75.9,72.0,87,29.93,-9999.0,Calm,Calm,-,N/A,,Unknown,0,2013-09-13 02:53:00
10:55 PM,73.4,69.8,88,29.95,10.0,Calm,Calm,-,N/A,,Clear,0,2013-09-13 02:55:00
11:15 PM,73.4,71.6,94,29.94,10.0,Calm,Calm,-,N/A,,Clear,0,2013-09-13 03:15:00
11:35 PM,73.4,71.6,94,29.94,10.0,Calm,Calm,-,N/A,,Clear,0,2013-09-13 03:35:00
11:53 PM,75.9,71.1,85,29.93,-9999.0,Calm,Calm,-,N/A,,Unknown,0,2013-09-13 03:53:00
11:55 PM,73.4,71.6,94,29.94,10.0,Calm,Calm,-,N/A,,Clear,0,2013-09-13 03:55:00